Volver al catálogo

STARLINK-36898

ActivoComunicacionesVLEO
NORAD 68002·PAYLOAD·🇺🇸 United States

Lanzado Feb 27, 2026 desde Vandenberg Space Force Base

Loading…

Próximos Pases (próximas 24 horas)

TLE

ActualizadoSource: CelesTrak SupGP

Época: Sep 15, 2026, 03:14 UTC

1 68002C 26039S   26258.13520833 -.00028521  00000+0 -10327-2 0  2586
2 68002  43.0001  59.3428 0001502 266.7426  75.9853 15.27602497    19

Sigue STARLINK-36898 en tiempo real con AllMySat

Download on the App Store